Satellite: RESURS
Catalog number: 25394
Epoch time: 09231.95234430
Element set: 0290
Inclination: 098.3337 deg
RA of node: 261.0440 deg
Eccentricity: 0.0002284
Arg of perigee: 042.6729 deg
Mean anomaly: 317.4628 deg
Mean motion: 14.24188074 rev/day
Decay rate: -1.7e-07 rev/day^2
Epoch rev: 57747
Checksum: 294
Satellite: FENGYUN1
Catalog number: 25730
Epoch time: 09232.38392124
Element set: 831
Inclination: 098.7572 deg
RA of node: 200.6267 deg
Eccentricity: 0.0023433
Arg of perigee: 036.3371 deg
Mean anomaly: 323.9383 deg
Mean motion: 14.07960518 rev/day
Decay rate: 6.58e-06 rev/day^2
Epoch rev: 52935
Checksum: 301
Satellite: OKEAN-0
Catalog number: 25860
Epoch time: 09231.52515346
Element set: 0762
Inclination: 097.7926 deg
RA of node: 210.2078 deg
Eccentricity: 0.0001246
Arg of perigee: 044.9503 deg
Mean anomaly: 315.1795 deg
Mean motion: 14.73584353 rev/day
Decay rate: 3.2e-07 rev/day^2
Epoch rev: 54247
Checksum: 292
Satellite: NOAA-16
Catalog number: 26536
Epoch time: 09231.75986009
Element set: 0527
Inclination: 099.1787 deg
RA of node: 236.9711 deg
Eccentricity: 0.0011391
Arg of perigee: 102.6556 deg
Mean anomaly: 257.5853 deg
Mean motion: 14.12529069 rev/day
Decay rate: -1.57e-06 rev/day^2
Epoch rev: 45927
Checksum: 337
Satellite: NOAA-17
Catalog number: 27453
Epoch time: 09231.93794464
Element set: 0529
Inclination: 098.4794 deg
RA of node: 288.7954 deg
Eccentricity: 0.0010785
Arg of perigee: 300.0443 deg
Mean anomaly: 059.9630 deg
Mean motion: 14.24083659 rev/day
Decay rate: -7.3e-07 rev/day^2
Epoch rev: 37182
Checksum: 342
Satellite: NOAA-18
Catalog number: 28654
Epoch time: 09231.92573047
Element set: 0015
Inclination: 098.9089 deg
RA of node: 174.6800 deg
Eccentricity: 0.0014201
Arg of perigee: 179.2928 deg
Mean anomaly: 180.8301 deg
Mean motion: 14.11277322 rev/day
Decay rate: -1.49e-06 rev/day^2
Epoch rev: 21894
Checksum: 307
Satellite: NOAA-19
Catalog number: 33591
Epoch time: 09231.91947717
Element set: 0220
Inclination: 098.7480 deg
RA of node: 176.0317 deg
Eccentricity: 0.0015137
Arg of perigee: 064.4445 deg
Mean anomaly: 295.8327 deg
Mean motion: 14.10978192 rev/day
Decay rate: 3.8e-07 rev/day^2
Epoch rev: 02742
Checksum: 315
/EX
SB KEPS @ AMSAT $ORB09232.M
Orbital Elements 09232.MISC
HR AMSAT ORBITAL ELEMENTS FOR MANNED AND MISCELLANEOUS SATELLITES
FROM WA5QGD FORT WORTH,TX August 20, 2009
Send Subscribe/unsubscribe to KEPS at
http://www.amsat.org/mailman/listinfo/keps
BID: ORB09232.M
TO ALL RADIO AMATEURS BT
Satellite: HUBBLE
Catalog number: 20580
Epoch time: 09230.15722119
Element set: 0435
Inclination: 028.4707 deg
RA of node: 057.8415 deg
Eccentricity: 0.0003405
Arg of perigee: 218.2776 deg
Mean anomaly: 141.7609 deg
Mean motion: 15.00822419 rev/day
Decay rate: 2.40e-06 rev/day^2
Epoch rev: 85917
Checksum: 277
Satellite: ISS
Catalog number: 25544
Epoch time: 09232.76531237
Element set: 450
Inclination: 051.6413 deg
RA of node: 335.3302 deg
Eccentricity: 0.0008604
Arg of perigee: 358.8497 deg
Mean anomaly: 138.3300 deg
Mean motion: 15.73685025 rev/day
Decay rate: 6.251e-05 rev/day^2
Epoch rev: 61612
Checksum: 278
Satellite: CO-58
Catalog number: 28895
Epoch time: 09232.22134410
Element set: 374
Inclination: 098.0503 deg
RA of node: 121.0166 deg
Eccentricity: 0.0018403
Arg of perigee: 144.4307 deg
Mean anomaly: 215.8111 deg
Mean motion: 14.59788653 rev/day
Decay rate: 1.25e-06 rev/day^2
Epoch rev: 20307
Checksum: 278
Satellite: FALCON
Catalog number: 30776
Epoch time: 09231.92431672
Element set: 0652
Inclination: 035.4338 deg
RA of node: 072.6944 deg
Eccentricity: 0.0000289
Arg of perigee: 009.2112 deg
Mean anomaly: 350.8609 deg
Mean motion: 15.03286615 rev/day
Decay rate: 1.65e-06 rev/day^2
Epoch rev: 13469
Checksum: 289
Satellite: MAST
Catalog number: 31126
Epoch time: 09232.74436281
Element set: 665
Inclination: 097.9845 deg
RA of node: 284.5757 deg
Eccentricity: 0.0095817
Arg of perigee: 079.4720 deg
Mean anomaly: 281.7348 deg
Mean motion: 14.53512412 rev/day
Decay rate: 2.1e-07 rev/day^2
Epoch rev: 12441
Checksum: 306
Satellite: CAPE1
Catalog number: 31130
Epoch time: 09232.64019071
Element set: 676
Inclination: 097.9842 deg
RA of node: 282.5180 deg
Eccentricity: 0.0103921
Arg of perigee: 085.7378 deg
Mean anomaly: 275.5662 deg
Mean motion: 14.52080733 rev/day
Decay rate: 8.0e-07 rev/day^2
Epoch rev: 12404
Checksum: 286
Satellite: COMPASS
Catalog number: 32787
Epoch time: 09232.19206445
Element set: 441
Inclination: 097.9378 deg
RA of node: 295.4604 deg
Eccentricity: 0.0015719
Arg of perigee: 180.5276 deg
Mean anomaly: 179.5922 deg
Mean motion: 14.81641096 rev/day
Decay rate: -6.3e-07 rev/day^2
Epoch rev: 7092
Checksum: 321
Satellite: AAUSAT2
Catalog number: 32788
Epoch time: 09231.74943570
Element set: 436
Inclination: 097.9344 deg
RA of node: 295.0885 deg
Eccentricity: 0.0015013
Arg of perigee: 183.1715 deg
Mean anomaly: 176.9396 deg
Mean motion: 14.81765523 rev/day
Decay rate: 1.04e-06 rev/day^2
Epoch rev: 7086
Checksum: 324
Satellite: DO-64
Catalog number: 32789
Epoch time: 09231.77131545
Element set: 0456
Inclination: 097.9408 deg
RA of node: 295.3160 deg
Eccentricity: 0.0015441
Arg of perigee: 181.3068 deg
Mean anomaly: 178.8104 deg
Mean motion: 14.81770310 rev/day
Decay rate: 3.58e-06 rev/day^2
Epoch rev: 07086
Checksum: 315
Satellite: CO-66
Catalog number: 32791
Epoch time: 09232.17482218
Element set: 433
Inclination: 097.9392 deg
RA of node: 295.4757 deg
Eccentricity: 0.0015908
Arg of perigee: 178.9116 deg
Mean anomaly: 181.2132 deg
Mean motion: 14.81466762 rev/day
Decay rate: 7.1e-07 rev/day^2
Epoch rev: 7088
Checksum: 332
Satellite: RS-30
Catalog number: 32953
Epoch time: 09232.50099964
Element set: 384
Inclination: 082.4983 deg
RA of node: 216.6151 deg
Eccentricity: 0.0020404
Arg of perigee: 041.3534 deg
Mean anomaly: 318.9095 deg
Mean motion: 12.43002856 rev/day
Decay rate: 1.0e-07 rev/day^2
Epoch rev: 5638
Checksum: 284
Satellite: TACSAT-3
Catalog number: 35001
Epoch time: 09231.41656502
Element set: 0084
Inclination: 040.4562 deg
RA of node: 222.4849 deg
Eccentricity: 0.0025527
Arg of perigee: 273.2618 deg
Mean anomaly: 086.5276 deg
Mean motion: 15.39046939 rev/day
Decay rate: 1.099e-05 rev/day^2
Epoch rev: 01409
Checksum: 295
Satellite: PHARMSAT
Catalog number: 35002
Epoch time: 09232.34375764
Element set: 75
Inclination: 040.4687 deg
RA of node: 216.3950 deg
Eccentricity: 0.0028517
Arg of perigee: 283.7835 deg
Mean anomaly: 075.9807 deg
Mean motion: 15.39807842 rev/day
Decay rate: 1.187e-05 rev/day^2
Epoch rev: 1423
Checksum: 309
Satellite: HAWKSAT1
Catalog number: 35003
Epoch time: 09231.99002980
Element set: 0083
Inclination: 040.4617 deg
RA of node: 218.0382 deg
Eccentricity: 0.0029139
Arg of perigee: 284.8661 deg
Mean anomaly: 074.8963 deg
Mean motion: 15.40431962 rev/day
Decay rate: 2.364e-05 rev/day^2
Epoch rev: 01419
Checksum: 290
Satellite: CP6
Catalog number: 35004
Epoch time: 09231.98981753
Element set: 0078
Inclination: 040.4626 deg
RA of node: 218.0421 deg
Eccentricity: 0.0028675
Arg of perigee: 284.1216 deg
Mean anomaly: 075.6437 deg
Mean motion: 15.40465550 rev/day
Decay rate: 2.637e-05 rev/day^2
Epoch rev: 01418
Checksum: 297
Satellite: AEROCUB3
Catalog number: 35005
Epoch time: 09232.84352155
Element set: 73
Inclination: 040.4735 deg
RA of node: 213.1770 deg
Eccentricity: 0.0028443
Arg of perigee: 288.8659 deg
Mean anomaly: 070.9077 deg
Mean motion: 15.40277680 rev/day
Decay rate: 2.552e-05 rev/day^2
Epoch rev: 1431
Checksum: 287
Satellite: DRAGNSAT
Catalog number: 35690
Epoch time: 09231.75633162
Element set: 21
Inclination: 051.6420 deg
RA of node: 339.3593 deg
Eccentricity: 0.0003883
Arg of perigee: 141.8958 deg
Mean anomaly: 218.2323 deg
Mean motion: 15.81216048 rev/day
Decay rate: 1.6394e-04 rev/day^2
Epoch rev: 320
Checksum: 277
Satellite: POLLUX
Catalog number: 35693
Epoch time: 09232.71102154
Element set: 20
Inclination: 051.6417 deg
RA of node: 334.4859 deg
Eccentricity: 0.0003968
Arg of perigee: 087.3868 deg
Mean anomaly: 272.7644 deg
Mean motion: 15.80717099 rev/day
Decay rate: 1.5097e-04 rev/day^2
Epoch rev: 332
Checksum: 307
Satellite: CASTOR
Catalog number: 35694
Epoch time: 09231.70307606
Element set: 0022
Inclination: 051.6431 deg
RA of node: 339.7590 deg
Eccentricity: 0.0004612
Arg of perigee: 093.1860 deg
Mean anomaly: 266.9641 deg
Mean motion: 15.80252898 rev/day
Decay rate: 8.010e-05 rev/day^2
Epoch rev: 00316
Checksum: 280
/EX
More information about the Keps
mailing list